Weather in Severiki

Russia / Pskov Oblast     55°49′48″N   30°35′54″E
temp.,
°C
wind,
m/s
gust,
m/s
humid.,
%
clouds,
%
prec.,
mm/h
press.,
hPa
HPBL,
m
24 may, tue
tue2400:00+8nw259098 0.1 1011137
03:00+6nw239524 0.1 101250
06:00+7nw278827 0.0 1013219
09:00+13nnw495824 0.0 1012941
12:00+17nnw5114129 0.0 10122246
15:00+18nnw5104193 0.0 10122648
18:00+16nw485468 0.0 1012803
21:00+11nw227543 0.0 101421
25 may, wed
wed2500:00+9ne24775 0.0 101580
03:00+6ne11585 0.0 101710
06:00+6ne115625 0.0 101713
09:00+13ese004239 0.0 1017380
12:00+18w22388 0.0 1016947
15:00+20wnw24385 0.0 10151962
18:00+15wnw1257100 0.0 101538
21:00+12s2275100 0.0 101431
26 may, thu
thu2600:00+12s2479100 0.0 101380
03:00+10ssw2688100 0.0 1011110
06:00+12ssw2479100 0.0 1009100
09:00+11wsw3898100 1.7 1008517
12:00+11wnw3894100 2.1 1009576
15:00+19wnw583973 2.3 10062668
18:00+16w49538 0.0 1005793
21:00+13w41079100 0.1 1004547
27 may, fri
fri2700:00+10wsw413934 1.3 1003668
03:00+9w61290100 1.7 10041077
06:00+8w5139270 0.0 1004713
09:00+12w696731 0.0 10051108
12:00+15wsw694292 0.0 10042020
15:00+16wsw5940100 0.0 10022508
18:00+14wsw5957100 0.0 10001556
21:00+10sw388669 0.1 999507
28 may, sat
sat2800:00+9wsw51093100 1.0 998714
03:00+6wsw4129748 1.1 999571
06:00+6wsw51189100 0.0 1000761
09:00+8wsw5980100 0.1 1000967
12:00+8sw4985100 0.4 10011168
15:00+11sw596096 0.7 10011590
18:00+11sw51171100 0.5 10011648
21:00+7sw4119229 1.1 1002755